Regional Weather Roundup
Issued by NWS Albany, NY

Home | Current Version | Previous Version | Graphics & Text | Print | Product List | Glossary On
Versions: 1 2 3 4 5 6 7 8 9 10 11 12 13 14 15 16 17 18 19 20 21 22 23 24 25 26 27 28 29 30 31 32 33 34 35 36 37 38 39 40 41 42 43 44 45 46 47 48 49 50
000
ASUS41 KALY 271910
RWRALY

NEW YORK STATE HOURLY WEATHER ROUNDUP
NATIONAL WEATHER SERVICE ALBANY NY
300 PM EDT MON APR 27 2015

NOTE: "FAIR" INDICATES FEW OR NO CLOUDS BELOW 12,000 FEET WITH NO
SIGNIFICANT WEATHER AND/OR NO OBSTRUCTIONS TO VISIBILITY.

NYZ032-033-038>043-046>054-057>066-NYZ062>081-272000-
EAST


CITY           SKY/WX    TMP DP  RH WIND       PRES   REMARKS
ALBANY         CLOUDY    57  34  41 NW10      29.66F
GLENS FALLS    LGT RAIN  55  36  48 N13       29.67S
POUGHKEEPSIE   CLOUDY    58  31  35 NW15      29.64F
NEWBURGH       PTSUNNY   55  36  47 NW12G23   29.66F
MONTGOMERY     PTSUNNY   59  35  40 NW16G25   29.66F
WHITE PLAINS   PTSUNNY   56  29  35 W16       29.64S
ISLIP          PTSUNNY   59  32  36 NW13      29.61F
NEW YORK CITY  CLOUDY    57  33  40 NW15G23   29.65F
CENTRAL PARK   CLOUDY    59  30  33 VRB7      29.68S
$$

NYZ005>009-017-018-044>046-055-056-272000-
CENTRAL


CITY           SKY/WX    TMP DP  RH WIND       PRES   REMARKS
FULTON         CLOUDY    48  35  60 NW14      29.83S
SYRACUSE       CLOUDY    50  35  56 W10G22    29.81S
ROME           CLOUDY    52  35  52 NW12      29.77S
ELMIRA         CLOUDY    49  37  63 NW8       29.80S
BINGHAMTON     CLOUDY    46  33  60 N16G23    29.75S
MONTICELLO     CLOUDY    48  39  71 NW20      29.71F
$$

NYZ026>034-041>043-272000-
NORTH


CITY           SKY/WX    TMP DP  RH WIND       PRES   REMARKS
WATERTOWN      CLOUDY    45  37  73 SW13      29.81S
FORT DRUM      NOT AVBL
MASSENA        CLOUDY    56  38  50 NE10      29.78S
SARANAC LAKE   CLOUDY    44  38  79 N10       29.72R
PLATTSBURGH    CLOUDY    50  41  71 N14       29.73S
$$

NYZ001>004-010>016-019>021-272000-
WEST


CITY           SKY/WX    TMP DP  RH WIND       PRES   REMARKS
NIAGARA FALLS  LGT RAIN  47  36  65 N14       29.89R
BUFFALO        CLOUDY    46  34  62 VRB7      29.89R
DUNKIRK        CLOUDY    44  37  76 NW7       29.92S
JAMESTOWN      CLOUDY    39  34  81 NW10      29.88R WCI  32
WELLSVILLE     CLOUDY    44  38  79 NW9       29.82S
ROCHESTER      CLOUDY    50  35  56 N12       29.86R
PENN YAN       CLOUDY    47  34  60 NW14G22   29.83S
$$

             KEY
       WCI = WIND CHILL INDEX
       VSB = VISIBILITY
       HX  = HEAT INDEX
$$



USA.gov is the U.S. government's official web portal to all federal, state and local government web resources and services.